sat.trackr.live / text

‹ back to catalog

STARLINK-37118

NORAD 68299 · 2026-057F

PAYLOAD ACTIVE UNKNOWN

§ Identity

Operator
Country
US
Launch date
2026-03-20
Launch site
AFWTR
Launch vehicle
Mass (kg)
RCS (m²)

Purposes: comms

External: N2YO · Heavens-Above · Gunter

§ Orbital elements

Epoch: 2026-09-20T03:12:36.798336Z

Period
93.90 min
Inclination
97.2852°
Eccentricity
0.0001031
Mean motion
15.33484632 rev/d
Perigee alt
464.7 km
Apogee alt
466.1 km
Semi-major
6,843.6 km
B*
8.7959e-4
RAAN
28.4782°
Arg perigee
79.2474°
Mean anomaly
280.8885°
Rev number
2,845

§ Raw data

STARLINK-371181 68299U 26057F   26263.13375924  .00028464  00000+0  87959-3 0  99912 68299  97.2852  28.4782 0001031  79.2474 280.8885 15.33484632 28455

JSON: /api/v1/satellites/68299 · /tle

For live sub-satellite position, see the globe view (requires WebGL).

§ Visibility from observer

Set your observer location to see the next 7 days of passes ≥ 10°. The values pass through the URL so the page stays shareable.

No JS? Fill the form by hand. The geolocation button needs JavaScript.